timestamp,wind_dir_avg,wind_spd_max_dir,wind_spd_avg,wind_spd_gust,battery_voltage,lat,long
2018-06-16 00:00:00+00:00,206.0,206.0,3.86,4.18,,47.59359,-54.27349
2018-06-16 00:10:00+00:00,201.0,203.0,4.73,4.9,,47.59359,-54.27349
2018-06-16 00:20:00+00:00,202.0,205.0,4.58,4.84,,47.59359,-54.27349
2018-06-16 00:30:00+00:00,210.0,210.0,3.69,4.14,,47.59359,-54.27349
2018-06-16 00:40:00+00:00,218.0,218.0,3.23,3.66,,47.59359,-54.27349
2018-06-16 00:50:00+00:00,237.0,239.0,3.68,4.29,,47.59359,-54.27349
2018-06-16 01:00:00+00:00,216.0,212.0,2.84,3.25,,47.59359,-54.27349
2018-06-16 01:10:00+00:00,207.0,206.0,3.55,3.74,,47.59359,-54.27349
2018-06-16 01:20:00+00:00,206.0,205.0,3.91,4.08,,47.59359,-54.27349
2018-06-16 01:30:00+00:00,198.0,198.0,4.25,4.42,,47.59359,-54.27349
2018-06-16 01:40:00+00:00,198.0,201.0,2.26,2.5,,47.59359,-54.27349
2018-06-16 01:50:00+00:00,205.0,209.0,2.46,2.52,,47.59359,-54.27349
2018-06-16 02:00:00+00:00,215.0,216.0,3.15,3.4,,47.59359,-54.27349
2018-06-16 02:10:00+00:00,221.0,220.0,4.45,4.91,,47.59359,-54.27349
2018-06-16 02:20:00+00:00,229.0,231.0,4.28,5.22,,47.59359,-54.27349
2018-06-16 02:30:00+00:00,232.0,232.0,3.98,4.36,,47.59359,-54.27349
2018-06-16 02:40:00+00:00,230.0,229.0,3.07,3.42,,47.59359,-54.27349
2018-06-16 02:50:00+00:00,223.0,223.0,3.21,3.39,,47.59359,-54.27349
2018-06-16 03:00:00+00:00,219.0,220.0,3.93,4.16,,47.59359,-54.27349
2018-06-16 03:10:00+00:00,226.0,225.0,2.13,2.49,,47.59359,-54.27349
2018-06-16 03:20:00+00:00,220.0,221.0,2.84,3.08,,47.59359,-54.27349
2018-06-16 03:30:00+00:00,225.0,224.0,3.03,3.22,,47.59359,-54.27349
2018-06-16 03:40:00+00:00,226.0,226.0,4.18,4.63,,47.59359,-54.27349
2018-06-16 03:50:00+00:00,224.0,222.0,3.81,4.06,,47.59359,-54.27349
2018-06-16 04:00:00+00:00,228.0,233.0,2.67,3.13,,47.59359,-54.27349
2018-06-16 04:10:00+00:00,216.0,221.0,3.17,3.42,,47.59359,-54.27349
2018-06-16 04:20:00+00:00,213.0,216.0,2.97,3.3,,47.59359,-54.27349
2018-06-16 04:30:00+00:00,208.0,211.0,3.52,3.81,,47.59359,-54.27349
2018-06-16 04:40:00+00:00,209.0,209.0,3.4,3.78,,47.59359,-54.27349
2018-06-16 04:50:00+00:00,205.0,205.0,3.67,3.95,,47.59359,-54.27349
2018-06-16 05:00:00+00:00,203.0,202.0,3.15,3.47,,47.59359,-54.27349
2018-06-16 05:10:00+00:00,214.0,212.0,3.24,3.45,,47.59359,-54.27349
2018-06-16 05:20:00+00:00,197.0,198.0,3.1,3.38,,47.59359,-54.27349
2018-06-16 05:30:00+00:00,215.0,214.0,2.54,2.71,,47.59359,-54.27349
2018-06-16 05:40:00+00:00,218.0,216.0,3.08,3.53,,47.59359,-54.27349
2018-06-16 05:50:00+00:00,217.0,218.0,2.43,2.73,,47.59359,-54.27349
2018-06-16 06:00:00+00:00,219.0,219.0,2.74,3.0,,47.59359,-54.27349
2018-06-16 06:10:00+00:00,195.0,195.0,1.53,1.64,,47.59359,-54.27349
2018-06-16 06:20:00+00:00,200.0,202.0,2.56,2.76,,47.59359,-54.27349
2018-06-16 06:30:00+00:00,189.0,194.0,0.68,0.91,,47.59359,-54.27349
2018-06-16 06:40:00+00:00,18.0,19.0,1.93,2.09,,47.59359,-54.27349
2018-06-16 06:50:00+00:00,36.0,37.0,2.47,2.68,,47.59359,-54.27349
2018-06-16 07:00:00+00:00,55.0,52.0,1.04,1.37,,47.59359,-54.27349
2018-06-16 07:10:00+00:00,127.0,129.0,1.34,1.56,,47.59359,-54.27349
2018-06-16 07:20:00+00:00,96.0,90.0,1.15,1.46,,47.59359,-54.27349
2018-06-16 07:30:00+00:00,102.0,109.0,1.09,1.55,,47.59359,-54.27349
2018-06-16 07:40:00+00:00,72.0,69.0,1.39,1.51,,47.59359,-54.27349
2018-06-16 07:50:00+00:00,113.0,99.0,1.18,1.4,,47.59359,-54.27349
2018-06-16 08:00:00+00:00,71.0,75.0,2.35,2.49,,47.59359,-54.27349
2018-06-16 08:10:00+00:00,70.0,70.0,2.08,2.22,,47.59359,-54.27349
2018-06-16 08:20:00+00:00,56.0,57.0,2.62,2.83,,47.59359,-54.27349
2018-06-16 08:30:00+00:00,22.0,20.0,3.43,3.89,,47.59359,-54.27349
2018-06-16 08:40:00+00:00,31.0,29.0,3.68,3.98,,47.59359,-54.27349
2018-06-16 08:50:00+00:00,27.0,33.0,2.58,3.03,,47.59359,-54.27349
2018-06-16 09:00:00+00:00,228.0,233.0,0.52,0.69,,47.59359,-54.27349
2018-06-16 09:10:00+00:00,214.0,214.0,2.5,3.0,,47.59359,-54.27349
2018-06-16 09:20:00+00:00,198.0,198.0,2.21,2.33,,47.59359,-54.27349
2018-06-16 09:30:00+00:00,218.0,220.0,3.53,3.71,,47.59359,-54.27349
2018-06-16 09:40:00+00:00,227.0,228.0,0.74,1.08,,47.59359,-54.27349
2018-06-16 09:50:00+00:00,188.0,196.0,0.91,1.06,,47.59359,-54.27349
2018-06-16 10:00:00+00:00,209.0,212.0,1.74,1.83,,47.59359,-54.27349
2018-06-16 10:10:00+00:00,227.0,229.0,2.54,2.68,,47.59359,-54.27349
2018-06-16 10:20:00+00:00,239.0,235.0,3.59,3.86,,47.59359,-54.27349
2018-06-16 10:30:00+00:00,246.0,243.0,4.75,6.04,,47.59359,-54.27349
2018-06-16 10:40:00+00:00,240.0,234.0,7.53,8.25,,47.59359,-54.27349
2018-06-16 10:50:00+00:00,247.0,254.0,6.17,7.11,,47.59359,-54.27349
2018-06-16 11:00:00+00:00,258.0,259.0,5.03,5.63,,47.59359,-54.27349
2018-06-16 11:20:00+00:00,263.0,268.0,4.28,4.9,,47.59359,-54.27349
2018-06-16 11:30:00+00:00,254.0,255.0,3.59,4.56,,47.59359,-54.27349
2018-06-16 11:40:00+00:00,243.0,244.0,4.3,5.35,,47.59359,-54.27349
2018-06-16 11:50:00+00:00,240.0,241.0,4.17,5.16,,47.59359,-54.27349
2018-06-16 12:00:00+00:00,237.0,231.0,3.74,4.24,,47.59359,-54.27349
2018-06-16 12:10:00+00:00,235.0,238.0,3.4,3.9,,47.59359,-54.27349
2018-06-16 12:20:00+00:00,239.0,241.0,2.75,3.29,,47.59359,-54.27349
2018-06-16 12:30:00+00:00,249.0,250.0,3.0,3.69,,47.59359,-54.27349
2018-06-16 12:40:00+00:00,258.0,255.0,3.97,4.32,,47.59359,-54.27349
2018-06-16 12:50:00+00:00,240.0,240.0,3.72,4.24,,47.59359,-54.27349
2018-06-16 13:00:00+00:00,252.0,250.0,3.45,3.64,,47.59359,-54.27349
2018-06-16 13:10:00+00:00,254.0,249.0,2.97,3.15,,47.59359,-54.27349
2018-06-16 13:20:00+00:00,251.0,249.0,2.93,3.25,,47.59359,-54.27349
2018-06-16 13:30:00+00:00,240.0,234.0,2.61,3.03,,47.59359,-54.27349
2018-06-16 13:40:00+00:00,226.0,232.0,3.13,3.57,,47.59359,-54.27349
2018-06-16 13:50:00+00:00,233.0,230.0,2.85,3.3,,47.59359,-54.27349
2018-06-16 14:00:00+00:00,256.0,261.0,2.3,2.75,,47.59359,-54.27349
2018-06-16 14:10:00+00:00,256.0,256.0,2.48,2.62,,47.59359,-54.27349
2018-06-16 14:20:00+00:00,265.0,260.0,1.93,2.11,,47.59359,-54.27349
2018-06-16 14:30:00+00:00,248.0,249.0,1.91,2.09,,47.59359,-54.27349
2018-06-16 14:40:00+00:00,221.0,223.0,1.19,1.43,,47.59359,-54.27349
2018-06-16 14:50:00+00:00,224.0,219.0,0.88,1.08,,47.59359,-54.27349
2018-06-16 15:00:00+00:00,180.0,188.0,0.09,0.65,,47.59359,-54.27349
2018-06-16 15:10:00+00:00,228.0,226.0,2.35,2.66,,47.59359,-54.27349
2018-06-16 15:20:00+00:00,226.0,225.0,3.43,3.81,,47.59359,-54.27349
2018-06-16 15:30:00+00:00,207.0,209.0,3.18,3.33,,47.59359,-54.27349
2018-06-16 15:40:00+00:00,200.0,198.0,3.25,3.44,,47.59359,-54.27349
2018-06-16 15:50:00+00:00,214.0,215.0,3.0,3.19,,47.59359,-54.27349
2018-06-16 16:00:00+00:00,214.0,214.0,2.67,2.9,,47.59359,-54.27349
2018-06-16 16:10:00+00:00,226.0,228.0,2.84,3.03,,47.59359,-54.27349
2018-06-16 16:20:00+00:00,231.0,231.0,2.21,2.36,,47.59359,-54.27349
2018-06-16 16:30:00+00:00,257.0,261.0,2.22,2.36,,47.59359,-54.27349
2018-06-16 16:40:00+00:00,229.0,228.0,2.69,2.84,,47.59359,-54.27349
2018-06-16 16:50:00+00:00,223.0,224.0,2.85,3.13,,47.59359,-54.27349
2018-06-16 17:00:00+00:00,224.0,223.0,3.71,4.0,,47.59359,-54.27349
2018-06-16 17:10:00+00:00,229.0,228.0,3.69,3.98,,47.59359,-54.27349
2018-06-16 17:20:00+00:00,231.0,232.0,5.02,5.24,,47.59359,-54.27349
2018-06-16 17:30:00+00:00,224.0,223.0,3.83,4.21,,47.59359,-54.27349
2018-06-16 17:40:00+00:00,225.0,224.0,4.5,4.93,,47.59359,-54.27349
2018-06-16 17:50:00+00:00,230.0,230.0,4.64,5.0,,47.59359,-54.27349
2018-06-16 18:00:00+00:00,242.0,243.0,4.07,4.42,,47.59359,-54.27349
2018-06-16 18:10:00+00:00,219.0,219.0,3.46,3.74,,47.59359,-54.27349
2018-06-16 18:20:00+00:00,219.0,225.0,3.35,3.66,,47.59359,-54.27349
2018-06-16 18:30:00+00:00,211.0,212.0,4.21,4.76,,47.59359,-54.27349
2018-06-16 18:40:00+00:00,211.0,209.0,4.48,5.16,,47.59359,-54.27349
2018-06-16 18:50:00+00:00,214.0,213.0,4.4,4.82,,47.59359,-54.27349
2018-06-16 19:00:00+00:00,216.0,217.0,4.07,4.4,,47.59359,-54.27349
2018-06-16 19:10:00+00:00,219.0,218.0,3.98,4.37,,47.59359,-54.27349
2018-06-16 19:20:00+00:00,220.0,218.0,4.12,4.54,,47.59359,-54.27349
2018-06-16 19:30:00+00:00,223.0,225.0,4.81,5.19,,47.59359,-54.27349
2018-06-16 19:40:00+00:00,221.0,222.0,4.51,4.97,,47.59359,-54.27349
2018-06-16 19:50:00+00:00,222.0,222.0,4.4,4.91,,47.59359,-54.27349
2018-06-16 20:00:00+00:00,220.0,223.0,3.66,4.19,,47.59359,-54.27349
2018-06-16 20:10:00+00:00,221.0,222.0,3.5,3.9,,47.59359,-54.27349
2018-06-16 20:20:00+00:00,209.0,209.0,3.5,3.77,,47.59359,-54.27349
2018-06-16 20:30:00+00:00,210.0,211.0,3.45,3.69,,47.59359,-54.27349
2018-06-16 20:40:00+00:00,222.0,224.0,4.01,4.25,,47.59359,-54.27349
2018-06-16 20:50:00+00:00,230.0,229.0,3.41,3.61,,47.59359,-54.27349
2018-06-16 21:00:00+00:00,233.0,232.0,2.52,2.68,,47.59359,-54.27349
2018-06-16 21:10:00+00:00,267.0,274.0,1.48,2.0,,47.59359,-54.27349
2018-06-16 21:20:00+00:00,228.0,234.0,1.39,2.04,,47.59359,-54.27349
2018-06-16 21:30:00+00:00,229.0,231.0,0.6,0.81,,47.59359,-54.27349
2018-06-16 21:40:00+00:00,272.0,284.0,0.67,0.92,,47.59359,-54.27349
2018-06-16 21:50:00+00:00,281.0,282.0,0.81,0.89,,47.59359,-54.27349
2018-06-16 22:00:00+00:00,69.0,55.0,0.77,1.39,,47.59359,-54.27349
2018-06-16 22:10:00+00:00,298.0,294.0,0.51,0.62,,47.59359,-54.27349
2018-06-16 22:20:00+00:00,322.0,336.0,1.21,1.57,,47.59359,-54.27349
2018-06-16 22:30:00+00:00,82.0,78.0,5.87,6.9,,47.59359,-54.27349
2018-06-16 22:40:00+00:00,78.0,76.0,5.15,5.79,,47.59359,-54.27349
2018-06-16 22:50:00+00:00,74.0,75.0,6.27,7.0,,47.59359,-54.27349
2018-06-16 23:00:00+00:00,71.0,74.0,6.61,7.45,,47.59359,-54.27349
2018-06-16 23:10:00+00:00,60.0,58.0,6.14,6.71,,47.59359,-54.27349
2018-06-16 23:20:00+00:00,59.0,56.0,6.0,6.44,,47.59359,-54.27349
2018-06-16 23:30:00+00:00,60.0,59.0,8.71,10.0,,47.59359,-54.27349
2018-06-16 23:40:00+00:00,55.0,56.0,8.73,9.74,,47.59359,-54.27349
2018-06-16 23:50:00+00:00,57.0,58.0,9.26,10.35,,47.59359,-54.27349
